Sheringham Point, British Columbia

2:13 PM PDT on October 19, 2017 (GMT -0700)
Sheringham Point

Weather History for CWSP - July, 2013

Change the Weather History Date:

Tuesday, July 30, 2013

  Actual Average Record
Temperature  
Mean Temperature 54 °F -  
Max Temperature 57 °F - - ()
Min Temperature 50 °F - - ()
Degree Days  
Heating Degree Days 12    
Growing Degree Days 4 (Base 50)    
Moisture  
Dew Point 52 °F    
Average Humidity 94    
Maximum Humidity 97    
Minimum Humidity 87    
Precipitation  
Precipitation 0.00 in - - ()
Sea Level Pressure  
Sea Level Pressure 30.08 in    
Wind  
Wind Speed 19 mph ()    
Max Wind Speed 28 mph    
Max Gust Speed 33 mph    
T = Trace of Precipitation, MM = Missing Value Source: Averaged Metar Reports

Daily Weather History Graph

Daily Weather History Graph

Search for Another Location

Airport or City:

Trip Planner

Search our weather history database for the weather conditions in past years. The results will help you decide how hot, cold, wet, or windy it might be!

Date:

Astronomy

Jul. 30, 2013 Rise Set
Actual Time 5:48 AM PDT 8:54 PM PDT
Civil Twilight 5:11 AM PDT 9:31 PM PDT
Nautical Twilight 4:23 AM PDT 10:19 PM PDT
Astronomical Twilight 3:22 AM PDT 11:19 PM PDT
Moon 12:13 AM PDT (7/30) 3:19 PM PDT (7/30)
Length of Visible Light 16h 20m
Length of Day
15h 06m
Last Quarter, 40% of the Moon is Illuminated
Jul 30
Last Quarter
Aug 6
New
Aug 14
First Quarter
Aug 20
Full
Aug 28
Last Quarter

Hourly Weather History & Observations

Time (PDT) Temp. Dew Point Humidity Pressure Visibility Wind Dir Wind Speed Gust Speed Precip Events Conditions
12:00 AM 52.5 °F 51.4 °F 96% 30.01 in - WNW 24.2 mph - N/A   Unknown
1:00 AM 52.3 °F 51.1 °F 95% 30.01 in - WNW 23.0 mph - N/A   Unknown
2:00 AM 52.2 °F 51.3 °F 97% 30.01 in - WNW 20.7 mph - N/A   Unknown
3:00 AM 53.1 °F 52.2 °F 97% 30.01 in - WNW 21.9 mph - N/A   Unknown
4:00 AM 53.4 °F 52.0 °F 95% 30.02 in - WNW 21.9 mph - N/A   Unknown
5:00 AM 53 °F 52 °F 95% 30.04 in - WNW 20.7 mph - -  
5:00 AM 52.9 °F 52.0 °F 97% 30.04 in - WNW 20.7 mph - N/A   Unknown
6:00 AM 52.3 °F 51.6 °F 97% 30.06 in - WNW 19.6 mph - N/A   Unknown
7:00 AM 52.2 °F 51.3 °F 97% 30.07 in - WNW 18.4 mph - N/A   Unknown
8:00 AM 51.3 °F 50.4 °F 97% 30.09 in - WNW 20.7 mph - N/A   Unknown
9:00 AM 51.3 °F 50.4 °F 97% 30.11 in - WNW 20.7 mph - N/A   Unknown
10:00 AM 51.3 °F 50.2 °F 96% 30.12 in - WNW 19.6 mph - N/A   Unknown
11:00 AM 53 °F 51 °F 92% 30.12 in - WNW 19.6 mph - -  
11:00 AM 52.5 °F 51.3 °F 95% 30.12 in - WNW 19.6 mph - N/A   Unknown
12:00 PM 52.9 °F 50.7 °F 92% 30.12 in - WNW 19.6 mph - N/A   Unknown
1:00 PM 54.0 °F 51.1 °F 90% 30.12 in - WNW 20.7 mph - N/A   Unknown
2:00 PM 55.2 °F 52.0 °F 89% 30.12 in - WNW 19.6 mph - N/A   Unknown
3:00 PM 54.9 °F 51.6 °F 89% 30.11 in - WNW 17.3 mph - N/A   Unknown
4:00 PM 56.1 °F 52.2 °F 87% 30.09 in - WNW 19.6 mph - N/A   Unknown
5:00 PM 55 °F 52 °F 87% 30.09 in - WNW 21.9 mph - -  
5:00 PM 54.9 °F 52.2 °F 91% 30.09 in - WNW 21.9 mph 27.6 mph N/A   Unknown
6:00 PM 54.1 °F 52.2 °F 93% 30.09 in - WNW 26.5 mph 33.4 mph N/A   Unknown
7:00 PM 54.1 °F 52.2 °F 93% 30.08 in - WNW 27.6 mph - N/A   Unknown
8:00 PM 54.3 °F 52.3 °F 93% 30.08 in - WNW 27.6 mph - N/A   Unknown
9:00 PM 53.2 °F 52.2 °F 96% 30.09 in - WNW 26.5 mph - N/A   Unknown
10:00 PM 53.2 °F 52.0 °F 95% 30.11 in - WNW 21.9 mph - N/A   Unknown
11:00 PM 53 °F 52 °F 94% 30.12 in - WNW 18.4 mph - -  
11:00 PM 52.9 °F 51.8 °F 96% 30.12 in - WNW 18.4 mph - N/A   Unknown